International Virtual Aviation Organisation

Eastern Europe and Northern Asia MCD

 

Карточка аэропорта UWGG

Внимание!
Информация на этой странице в стадии наполнения.
Если вы не увидели какой-то информации, или заметили неточность - пожалуйста сообщите нам!
Спасибо!
Команда RU-STAFF
Название аэропортаСтригино
Название аэропорта (англ.)Strigino
Превышение256 ft. (78 m.)
Координаты56°13.8', 43°47.202'
Высота перехода900 m
Эшелон переходаBy ATC
Коды ответчика2120-2147
Зона ОрВДМосква РПИ (UUWV)
Данные METARUWGG 131900Z 19002MPS CAVOK 11/M01 Q1026 R18L/090060 NOSIG
Проноз погоды (TAF)UWGG 131650Z 1318/1418 17003MPS 9999 SCT040 TX22/1412Z TN06/1401Z TEMPO 1406/1415 16008G14MPS
NOTAMshow/hide NOTAM
AWOS   TABLE

Информация о ВПП

ВПП Длина ВПП (м.) Покрытие Курс ВПП Частота ILS
18L3000Цементобетон179108.1
36L2806Асфальтобетон359109.5
18R2806Асфальтобетон179109.9
36R3000Цементобетон359110.5

Диспетчерские позиции

Позывной Наименование органа УВД Частота
UWGG_APPНижний-Подход124.700
UWGG_R_APPНижний-Круг120.800
UWGG_TWRНижний-Вышка120.400
UWGG_GNDНижний-Руление121.800



Спутниковое изображение